Flag for Slovakia Weather past 2 weeks in Košice, Slovakia

Now
46 °F

Passing clouds.


Feels Like: 46 °F
Forecast: 45 / 71 °F
Wind: 2 mph from North

Location: Kosice - Barca


UV Index: 0 (Low)

Visibility: N/A


Pressure: 29.89 "Hg

Humidity: 87%

Dew point: 43 °F

Location of KošiceLocation

Historic Weather in Košice

°F

Košice temperature yesterday

Maximum temperature yesterday: 64 °F (at 12:00 PM)
Minimum temperature yesterday: 41 °F (at 5:00 AM)
Average temperature yesterday: 54 °F

Past Weeks' High & Low Weather Summary

 TemperatureHumidityPressure
High70 °F (Apr 18, 2:00 PM)100% (Apr 6, 3:00 AM)30.18 "Hg (Apr 6, 3:00 AM)
Low30 °F (Apr 10, 6:00 AM)35% (Apr 9, 5:30 PM)29.68 "Hg (Apr 14, 3:30 PM)
Average49 °F73%29.96 "Hg
* Reported Apr 6 3:00 AM — Apr 21 3:30 AM, Košice, Weather by CustomWeather, © 2014

Note: Actual official high and low records may vary slightly from our data, if they occured in-between our weather recording intervals... More about our weather records

Advertising

Historic Weather Conditions — Data for Previous 24 hours

 ConditionsComfort  
Time TempWeatherWind HumidityBarometerVisibility
3:30 AM
Apr 21
46 °FPassing clouds.1 mph93%29.89 "HgN/A
3:00 AM46 °FPassing clouds.1 mph93%29.89 "HgN/A
2:30 AM48 °FClear.No wind82%29.89 "Hg10 mi
2:00 AM48 °FClear.1 mph87%29.89 "Hg10 mi
1:30 AM50 °FClear.1 mph82%29.89 "Hg10 mi
1:00 AM50 °FClear.No wind82%29.89 "Hg10 mi
12:30 AM50 °FLight rain. Clear.No wind82%29.89 "HgN/A
12:00 AM50 °FLight rain. Clear.No wind82%29.89 "HgN/A
11:00 PM
Apr 20
52 °FClear.No wind77%29.89 "Hg10 mi
10:30 PM50 °FClear.No wind82%29.89 "Hg10 mi
10:00 PM52 °FClear.No wind77%29.86 "Hg10 mi
9:30 PM52 °FClear.2 mph77%29.86 "Hg10 mi
9:00 PM54 °FClear.2 mph67%29.86 "Hg10 mi
8:30 PM52 °FSunny.5 mph72%29.86 "Hg10 mi
8:00 PM54 °FSunny.3 mph72%29.83 "Hg10 mi
7:30 PM55 °FSunny.2 mph67%29.83 "Hg10 mi
7:00 PM57 °FSunny.3 mph63%29.83 "Hg10 mi
6:30 PM59 °FSunny.6 mph55%29.83 "Hg10 mi
6:00 PM61 °FPassing clouds.7 mph52%29.83 "HgN/A
5:30 PM61 °FPassing clouds.6 mph52%29.83 "HgN/A
5:00 PM63 °FPassing clouds.6 mph49%29.83 "HgN/A
4:30 PM61 °FPassing clouds.7 mph48%29.83 "HgN/A
4:00 PM61 °FPassing clouds.7 mph52%29.83 "HgN/A
3:30 PM59 °FSunny.10 mph55%29.83 "Hg10 mi
3:00 PM63 °FSunny.1 mph42%29.83 "Hg10 mi
2:30 PM63 °FSunny.1 mph42%29.83 "Hg10 mi
2:00 PM63 °FSunny.1 mph45%29.83 "Hg10 mi
1:30 PM63 °FPassing clouds.5 mph39%29.86 "HgN/A
1:00 PM63 °FPassing clouds.5 mph42%29.86 "HgN/A
12:30 PM61 °FPassing clouds.6 mph45%29.86 "HgN/A
12:00 PM64 °FPassing clouds.5 mph40%29.86 "HgN/A
11:30 AM63 °FPassing clouds.3 mph45%29.86 "HgN/A
11:00 AM63 °FPassing clouds.5 mph45%29.86 "HgN/A
10:30 AM59 °FPassing clouds.6 mph55%29.86 "HgN/A
10:00 AM59 °FPassing clouds.6 mph51%29.86 "HgN/A
9:30 AM55 °FSunny.10 mph63%29.86 "Hg10 mi
9:00 AM54 °FSunny.9 mph67%29.86 "Hg10 mi
8:30 AM54 °FPassing clouds.6 mph72%29.86 "HgN/A
8:00 AM52 °FPassing clouds.6 mph77%29.86 "HgN/A
7:30 AM50 °FPassing clouds.9 mph76%29.86 "HgN/A
7:00 AM46 °FSunny.10 mph87%29.86 "Hg10 mi
6:30 AM45 °FPassing clouds.9 mph87%29.86 "HgN/A
6:00 AM45 °FClear.12 mph87%29.86 "Hg10 mi
5:30 AM43 °FPassing clouds.7 mph93%29.86 "HgN/A
5:00 AM41 °FPassing clouds.8 mph93%29.86 "HgN/A
4:30 AM45 °FPassing clouds.7 mph93%29.86 "HgN/A
4:00 AM45 °FClear.9 mph93%29.86 "Hg10 mi
Weather by CustomWeather, © 2014

See weather overview